Home > Time Zones > World Clock > Weather > Egypt > Cairo > Past weeks

Flag for Egypt Weather past 2 weeks in Cairo, Egypt

Now
82 °F

Clear.


Feels Like: 83 °F
Forecast: 70 / 95 °F
Wind: 8 mph from North

Location: Cairo Airport

Current Time: Jul 3, 2015 at 7:51:51 PM

Latest Report: Jul 3, 2015 at 7:30 PM


Visibility: 10 mi

Pressure: 29.92 "Hg

Humidity: 51%

Dew point: 63 °F

Location of CairoLocation

Historic Weather in Cairo — Graph

°F

Cairo temperature yesterday

Maximum temperature yesterday: 88 °F (at 1:30 PM)
Minimum temperature yesterday: 72 °F (at 1:30 AM)
Average temperature yesterday: 79 °F

Past Weeks' High & Low Weather Summary

 TemperatureHumidityPressure
High102 °F (Jun 27, 2:30 PM)88% (Jun 26, 6:00 AM)30.01 "Hg (Jun 26, 6:00 AM)
Low70 °F (Jun 24, 5:30 AM)11% (Jun 27, 2:30 PM)29.59 "Hg (Jun 27, 2:00 PM)
Average80 °F51%29.87 "Hg
* Reported Jun 18 6:00 PM — Jul 3 6:30 PM, Cairo, Weather by CustomWeather, © 2015

Note: Actual official high and low records may vary slightly from our data, if they occured in-between our weather recording intervals... More about our weather records

Advertising

Cairo weather history for previous 24 hours

 ConditionsComfort  
Time TempWeatherWind HumidityBarometerVisibility
6:30 PM
Fri, Jul 3
88 °FSunny.8 mph38%29.89 "Hg10 mi
6:00 PM88 °FPassing clouds.8 mph38%29.89 "HgN/A
5:30 PM88 °FScattered clouds.9 mph35%29.89 "HgN/A
5:00 PM88 °FScattered clouds.9 mph35%29.89 "HgN/A
4:30 PM90 °FScattered clouds.6 mph36%29.89 "HgN/A
4:00 PM90 °FPassing clouds.6 mph36%29.89 "HgN/A
3:30 PM90 °FSunny.12 mph36%29.89 "Hg10 mi
3:00 PM90 °FSunny.12 mph36%29.89 "Hg10 mi
2:30 PM90 °FSunny.10 mph36%29.89 "Hg10 mi
2:00 PM90 °FSunny.10 mph36%29.92 "Hg10 mi
1:30 PM88 °FSunny.6 mph35%29.92 "Hg10 mi
1:00 PM88 °FSunny.6 mph35%29.92 "Hg10 mi
12:30 PM86 °FSunny.7 mph38%29.92 "Hg10 mi
12:00 PM86 °FSunny.7 mph38%29.92 "Hg10 mi
11:30 AM84 °FSunny.6 mph43%29.95 "Hg10 mi
11:00 AM82 °FSunny.8 mph48%29.95 "Hg10 mi
10:30 AM82 °FSunny.6 mph48%29.95 "Hg10 mi
10:00 AM81 °FSunny.6 mph54%29.95 "Hg10 mi
9:30 AM79 °FScattered clouds.6 mph61%29.95 "HgN/A
9:00 AM77 °FScattered clouds.6 mph69%29.95 "HgN/A
8:30 AM75 °FPartly sunny.6 mph74%29.95 "HgN/A
7:00 AM73 °FPartly sunny.5 mph78%29.95 "HgN/A
6:30 AM73 °FPartly sunny.5 mph78%29.95 "HgN/A
6:00 AM73 °FPartly sunny.5 mph78%29.95 "HgN/A
5:30 AM72 °FPartly sunny.5 mph83%29.95 "HgN/A
5:00 AM73 °FPartly sunny.7 mph78%29.92 "HgN/A
4:30 AM72 °FPassing clouds.5 mph83%29.92 "HgN/A
4:00 AM72 °FClear.5 mph83%29.92 "Hg10 mi
3:30 AM72 °FClear.5 mph88%29.95 "Hg10 mi
3:00 AM72 °FClear.5 mph27%29.95 "Hg10 mi
2:30 AM73 °FClear.7 mph78%29.95 "Hg10 mi
2:00 AM73 °FClear.7 mph78%29.95 "Hg10 mi
1:30 AM73 °FClear.6 mph78%29.95 "Hg10 mi
1:00 AM73 °FClear.6 mph83%29.95 "Hg10 mi
12:30 AM73 °FClear.7 mph78%29.95 "Hg10 mi
12:00 AM73 °FClear.8 mph78%29.95 "Hg10 mi
11:30 PM
Thu, Jul 2
73 °FClear.7 mph78%29.98 "Hg10 mi
11:00 PM75 °FClear.9 mph69%29.98 "Hg10 mi
10:30 PM75 °FClear.8 mph74%29.98 "Hg10 mi
10:00 PM77 °FClear.8 mph65%29.98 "Hg10 mi
9:30 PM77 °FClear.9 mph65%29.98 "Hg10 mi
9:00 PM79 °FClear.8 mph58%29.95 "Hg10 mi
8:30 PM79 °FClear.9 mph58%29.95 "Hg10 mi
8:00 PM81 °FClear.16 mph51%29.92 "Hg10 mi
7:30 PM84 °FClear.9 mph40%29.92 "Hg10 mi
7:00 PM84 °FClear.9 mph40%29.92 "Hg10 mi
Weather by CustomWeather, © 2015

See weather overviewHow to use our weather pages